Time,TemperatureF,DewpointF,PressureIn,WindDirection,WindDirectionDegrees,WindSpeedMPH,WindSpeedGustMPH,Humidity,HourlyPrecipIn,Conditions,Clouds,dailyrainin,SoftwareType,DateUTC
2013-03-01 00:00:00,33.2,25.8,29.99,NW,317,5.0,7.0,74,0.00,,---,0.01,VWS V14.01,2013-03-01 05:00:00,
2013-03-01 00:05:00,33.2,25.8,29.99,NW,306,4.0,7.0,74,0.00,,---,0.01,VWS V14.01,2013-03-01 05:05:00,
2013-03-01 00:06:00,33.2,25.8,29.99,NW,306,4.0,7.0,74,0.00,,---,0.01,VWS V14.01,2013-03-01 05:06:00,
2013-03-01 00:11:00,33.2,25.8,29.99,NW,311,4.0,7.0,74,0.00,,---,0.00,VWS V14.01,2013-03-01 05:11:00,
2013-03-01 00:16:00,33.1,25.7,29.98,NW,325,5.0,7.0,74,0.00,,---,0.00,VWS V14.01,2013-03-01 05:16:00,
2013-03-01 00:21:00,33.1,25.7,29.98,NW,322,4.0,7.0,74,0.00,,---,0.00,VWS V14.01,2013-03-01 05:21:00,
2013-03-01 00:26:00,32.9,25.5,29.98,NW,305,3.0,7.0,74,0.00,,---,0.00,VWS V14.01,2013-03-01 05:26:00,
2013-03-01 00:31:00,32.9,25.5,29.98,NNW,335,8.0,8.0,74,0.00,,---,0.00,VWS V14.01,2013-03-01 05:31:00,
2013-03-01 00:36:00,32.9,25.5,29.99,NW,323,9.0,9.0,74,0.00,,---,0.00,VWS V14.01,2013-03-01 05:36:00,
2013-03-01 00:41:00,32.9,25.5,29.98,NNW,338,6.0,9.0,74,0.00,,---,0.00,VWS V14.01,2013-03-01 05:41:00,
2013-03-01 00:46:00,32.9,25.5,29.98,NW,325,5.0,9.0,74,0.00,,---,0.00,VWS V14.01,2013-03-01 05:46:00,
2013-03-01 00:51:00,32.8,25.4,29.98,NNW,344,4.0,9.0,74,0.00,,---,0.00,VWS V14.01,2013-03-01 05:51:00,
2013-03-01 00:56:00,32.8,25.4,29.98,NNW,337,9.0,9.0,74,0.00,,---,0.00,VWS V14.01,2013-03-01 05:56:00,
2013-03-01 01:01:00,32.8,25.4,29.98,NNW,346,8.0,9.0,74,0.00,,---,0.00,VWS V14.01,2013-03-01 06:01:00,
2013-03-01 01:06:00,32.8,25.4,29.98,NW,307,4.0,9.0,74,0.00,,---,0.00,VWS V14.01,2013-03-01 06:06:00,
2013-03-01 01:11:00,32.8,25.4,29.98,NNW,348,6.0,9.0,74,0.00,,---,0.00,VWS V14.01,2013-03-01 06:11:00,
2013-03-01 01:16:00,32.7,25.3,29.98,NW,308,3.0,9.0,74,0.00,,---,0.00,VWS V14.01,2013-03-01 06:16:00,
2013-03-01 01:21:00,32.7,25.3,29.98,NW,319,6.0,9.0,74,0.00,,---,0.00,VWS V14.01,2013-03-01 06:21:00,
2013-03-01 01:26:00,32.7,25.3,29.98,NW,316,5.0,9.0,74,0.00,,---,0.00,VWS V14.01,2013-03-01 06:26:00,
2013-03-01 01:31:00,32.5,25.1,29.98,NNW,338,3.0,9.0,74,0.00,,---,0.00,VWS V14.01,2013-03-01 06:31:00,
2013-03-01 01:36:00,32.5,25.1,29.98,NNW,331,8.0,8.0,74,0.00,,---,0.00,VWS V14.01,2013-03-01 06:36:00,
2013-03-01 01:41:00,32.5,25.1,29.98,NNW,339,4.0,8.0,74,0.00,,---,0.00,VWS V14.01,2013-03-01 06:41:00,
2013-03-01 01:47:00,32.5,25.5,29.98,NW,320,4.0,8.0,75,0.00,,---,0.00,VWS V14.01,2013-03-01 06:47:00,
2013-03-01 01:52:00,32.5,25.5,29.98,NW,326,6.0,8.0,75,0.00,,---,0.00,VWS V14.01,2013-03-01 06:52:00,
2013-03-01 01:57:00,32.4,25.4,29.98,NW,308,7.0,8.0,75,0.00,,---,0.00,VWS V14.01,2013-03-01 06:57:00,
2013-03-01 02:02:00,32.5,25.5,29.98,NW,319,5.0,8.0,75,0.00,,---,0.00,VWS V14.01,2013-03-01 07:02:00,
2013-03-01 02:07:00,32.4,25.4,29.98,NNW,338,6.0,8.0,75,0.00,,---,0.00,VWS V14.01,2013-03-01 07:07:00,
2013-03-01 02:12:00,32.4,25.4,29.98,NW,320,4.0,8.0,75,0.00,,---,0.00,VWS V14.01,2013-03-01 07:12:00,
2013-03-01 02:17:00,32.4,25.4,29.98,NW,313,5.0,8.0,75,0.00,,---,0.00,VWS V14.01,2013-03-01 07:17:00,
2013-03-01 02:22:00,32.4,25.4,29.98,NNW,343,6.0,8.0,75,0.00,,---,0.00,VWS V14.01,2013-03-01 07:22:00,
2013-03-01 02:27:00,32.4,25.4,29.98,NW,326,7.0,8.0,75,0.00,,---,0.00,VWS V14.01,2013-03-01 07:27:00,
2013-03-01 02:32:00,32.4,25.4,29.98,NNW,329,2.0,8.0,75,0.00,,---,0.00,VWS V14.01,2013-03-01 07:32:00,
2013-03-01 02:37:00,32.4,25.4,29.98,NW,321,5.0,5.0,75,0.00,,---,0.00,VWS V14.01,2013-03-01 07:37:00,
2013-03-01 02:42:00,32.4,25.4,29.97,NW,311,0.0,5.0,75,0.00,,---,0.00,VWS V14.01,2013-03-01 07:42:00,
2013-03-01 02:47:00,32.4,25.4,29.97,NW,319,3.0,5.0,75,0.00,,---,0.00,VWS V14.01,2013-03-01 07:47:00,
2013-03-01 02:52:00,32.4,25.7,29.97,NW,315,2.0,5.0,76,0.00,,---,0.00,VWS V14.01,2013-03-01 07:52:00,
2013-03-01 02:57:00,32.2,25.5,29.97,NNW,330,2.0,5.0,76,0.00,,---,0.00,VWS V14.01,2013-03-01 07:57:00,
2013-03-01 03:00:00,32.2,25.5,29.97,NW,315,4.0,8.0,76,0.00,,---,0.00,VWS V14.01,2013-03-01 08:00:00,
2013-03-01 03:03:00,32.2,25.5,29.97,NW,323,2.0,5.0,76,0.00,,---,0.00,VWS V14.01,2013-03-01 08:03:00,
2013-03-01 03:10:00,32.2,25.5,29.97,North,355,2.0,5.0,76,0.00,,---,0.00,VWS V14.01,2013-03-01 08:10:00,
2013-03-01 03:15:00,32.2,25.5,29.97,NNW,330,2.0,5.0,76,0.00,,---,0.00,VWS V14.01,2013-03-01 08:15:00,
2013-03-01 03:20:00,32.1,25.4,29.97,NNW,331,2.0,5.0,76,0.00,,---,0.00,VWS V14.01,2013-03-01 08:20:00,
2013-03-01 03:25:00,32.2,25.5,29.97,NW,319,3.0,5.0,76,0.00,,---,0.00,VWS V14.01,2013-03-01 08:25:00,
2013-03-01 03:30:00,32.1,25.4,29.97,NW,313,5.0,5.0,76,0.00,,---,0.00,VWS V14.01,2013-03-01 08:30:00,
2013-03-01 03:35:00,32.1,25.4,29.97,NW,321,2.0,5.0,76,0.00,,---,0.00,VWS V14.01,2013-03-01 08:35:00,
2013-03-01 03:40:00,32.1,25.4,29.97,NW,321,4.0,5.0,76,0.00,,---,0.00,VWS V14.01,2013-03-01 08:40:00,
2013-03-01 03:45:00,32.1,25.4,29.96,North,5,4.0,5.0,76,0.00,,---,0.00,VWS V14.01,2013-03-01 08:45:00,
2013-03-01 03:50:00,32.1,25.4,29.96,NW,313,4.0,5.0,76,0.00,,---,0.00,VWS V14.01,2013-03-01 08:50:00,
2013-03-01 03:55:00,31.9,25.2,29.97,NW,317,4.0,5.0,76,0.00,,---,0.00,VWS V14.01,2013-03-01 08:55:00,
2013-03-01 04:00:00,31.9,25.2,29.96,NNW,338,3.0,5.0,76,0.00,,---,0.00,VWS V14.01,2013-03-01 09:00:00,
2013-03-01 04:05:00,31.9,25.2,29.97,NNW,342,6.0,6.0,76,0.00,,---,0.00,VWS V14.01,2013-03-01 09:05:00,
2013-03-01 04:10:00,31.9,25.2,29.97,NNW,336,3.0,6.0,76,0.00,,---,0.00,VWS V14.01,2013-03-01 09:10:00,
2013-03-01 04:30:00,31.8,24.8,29.97,NNW,338,5.0,10.0,75,0.00,,---,0.00,VWS V14.01,2013-03-01 09:30:00,
2013-03-01 04:33:00,31.8,24.8,29.97,NNW,333,5.0,5.0,75,0.00,,---,0.00,VWS V14.01,2013-03-01 09:33:00,
2013-03-01 04:38:00,31.8,25.1,29.97,NW,314,5.0,5.0,76,0.00,,---,0.00,VWS V14.01,2013-03-01 09:38:00,
2013-03-01 04:43:00,31.8,25.1,29.97,NW,325,5.0,5.0,76,0.00,,---,0.00,VWS V14.01,2013-03-01 09:43:00,
2013-03-01 04:48:00,31.8,24.8,29.97,NNW,338,6.0,6.0,75,0.00,,---,0.00,VWS V14.01,2013-03-01 09:48:00,
2013-03-01 04:53:00,31.8,24.8,29.97,NW,324,3.0,6.0,75,0.00,,---,0.00,VWS V14.01,2013-03-01 09:53:00,
2013-03-01 04:58:00,31.8,24.8,29.97,NW,321,3.0,6.0,75,0.00,,---,0.00,VWS V14.01,2013-03-01 09:58:00,
2013-03-01 05:00:00,31.8,24.8,29.98,NW,315,5.0,10.0,75,0.00,,---,0.00,VWS V14.01,2013-03-01 10:00:00,
2013-03-01 05:30:00,31.6,24.9,29.98,NW,315,4.0,10.0,76,0.00,,---,0.00,VWS V14.01,2013-03-01 10:30:00,
2013-03-01 06:00:00,31.6,24.9,29.99,NW,315,5.0,8.0,76,0.00,,---,0.00,VWS V14.01,2013-03-01 11:00:00,
2013-03-01 06:30:00,31.5,24.8,29.98,NW,315,3.0,8.0,76,0.00,,---,0.00,VWS V14.01,2013-03-01 11:30:00,
2013-03-01 07:00:00,31.5,25.1,29.99,NNW,338,3.0,7.0,77,0.00,,---,0.00,VWS V14.01,2013-03-01 12:00:00,
2013-03-01 07:30:00,31.3,24.9,29.99,NNW,338,3.0,8.0,77,0.00,,---,0.00,VWS V14.01,2013-03-01 12:30:00,
2013-03-01 08:00:00,31.2,25.1,30.00,NNW,338,5.0,9.0,78,0.00,,---,0.00,VWS V14.01,2013-03-01 13:00:00,
2013-03-01 08:30:00,30.9,25.2,30.00,NNW,338,5.0,10.0,79,0.00,,---,0.00,VWS V14.01,2013-03-01 13:30:00,
2013-03-01 09:00:00,31.0,25.6,30.01,NW,315,5.0,9.0,80,0.00,,---,0.00,VWS V14.01,2013-03-01 14:00:00,
2013-03-01 09:30:00,31.3,26.2,30.01,NW,315,5.0,10.0,81,0.00,,---,0.00,VWS V14.01,2013-03-01 14:30:00,
2013-03-01 10:00:00,31.5,26.6,30.01,NW,315,5.0,10.0,82,0.00,,---,0.00,VWS V14.01,2013-03-01 15:00:00,
2013-03-01 10:30:00,31.9,27.0,30.02,NW,315,4.0,9.0,82,0.00,,---,0.00,VWS V14.01,2013-03-01 15:30:00,
2013-03-01 11:00:00,31.8,26.9,30.02,NW,315,5.0,10.0,82,0.01,,---,0.01,VWS V14.01,2013-03-01 16:00:00,
2013-03-01 11:05:00,31.9,27.0,30.02,NW,315,4.0,9.0,82,0.00,,---,0.00,VWS V14.01,2013-03-01 16:05:00,
2013-03-01 11:10:00,32.1,27.2,30.02,NW,306,8.0,10.0,82,0.01,,---,0.01,VWS V14.01,2013-03-01 16:10:00,
2013-03-01 11:15:00,32.2,27.3,30.02,NW,309,4.0,10.0,82,0.01,,---,0.01,VWS V14.01,2013-03-01 16:15:00,
2013-03-01 11:20:00,32.2,27.3,30.02,NNW,348,7.0,10.0,82,0.01,,---,0.01,VWS V14.01,2013-03-01 16:20:00,
2013-03-01 11:25:00,32.2,27.3,30.02,NNW,327,3.0,10.0,82,0.01,,---,0.01,VWS V14.01,2013-03-01 16:25:00,
2013-03-01 11:30:00,32.4,27.5,30.02,NW,316,5.0,10.0,82,0.01,,---,0.01,VWS V14.01,2013-03-01 16:30:00,
2013-03-01 11:35:00,32.4,27.5,30.02,NW,319,6.0,10.0,82,0.01,,---,0.01,VWS V14.01,2013-03-01 16:35:00,
2013-03-01 11:40:00,32.4,27.2,30.02,WNW,302,5.0,10.0,81,0.01,,---,0.01,VWS V14.01,2013-03-01 16:40:00,
2013-03-01 11:45:00,32.4,27.2,30.02,NW,316,8.0,10.0,81,0.01,,---,0.01,VWS V14.01,2013-03-01 16:45:00,
2013-03-01 11:50:00,32.2,27.0,30.02,NW,324,6.0,10.0,81,0.01,,---,0.01,VWS V14.01,2013-03-01 16:50:00,
2013-03-01 11:55:00,32.4,27.2,30.02,NNW,337,7.0,10.0,81,0.01,,---,0.01,VWS V14.01,2013-03-01 16:55:00,
2013-03-01 12:00:00,32.4,27.2,30.02,NNW,330,5.0,10.0,81,0.01,,---,0.01,VWS V14.01,2013-03-01 17:00:00,
2013-03-01 12:05:00,32.5,27.3,30.02,NW,315,7.0,10.0,81,0.01,,---,0.01,VWS V14.01,2013-03-01 17:05:00,
2013-03-01 12:10:00,32.7,27.5,30.02,NW,325,4.0,10.0,81,0.01,,---,0.01,VWS V14.01,2013-03-01 17:10:00,
2013-03-01 12:15:00,32.7,27.2,30.02,NW,315,8.0,10.0,80,0.01,,---,0.01,VWS V14.01,2013-03-01 17:15:00,
2013-03-01 12:20:00,32.7,27.5,30.02,WNW,288,4.0,10.0,81,0.01,,---,0.01,VWS V14.01,2013-03-01 17:20:00,
2013-03-01 12:25:00,32.9,27.7,30.02,NW,306,4.0,10.0,81,0.01,,---,0.01,VWS V14.01,2013-03-01 17:25:00,
2013-03-01 12:30:00,33.1,27.9,30.02,NW,306,9.0,10.0,81,0.01,,---,0.01,VWS V14.01,2013-03-01 17:30:00,
2013-03-01 12:35:00,32.9,27.7,30.02,WNW,300,7.0,10.0,81,0.01,,---,0.01,VWS V14.01,2013-03-01 17:35:00,
2013-03-01 12:40:00,33.1,27.9,30.02,NW,304,6.0,10.0,81,0.01,,---,0.01,VWS V14.01,2013-03-01 17:40:00,
2013-03-01 12:45:00,33.1,27.6,30.02,NNW,331,6.0,10.0,80,0.01,,---,0.01,VWS V14.01,2013-03-01 17:45:00,
2013-03-01 12:50:00,33.2,27.7,30.02,WNW,298,7.0,10.0,80,0.01,,---,0.01,VWS V14.01,2013-03-01 17:50:00,
2013-03-01 12:55:00,33.2,27.7,30.02,NW,306,5.0,10.0,80,0.01,,---,0.01,VWS V14.01,2013-03-01 17:55:00,
2013-03-01 13:00:00,33.2,27.7,30.02,NW,306,5.0,10.0,80,0.01,,---,0.01,VWS V14.01,2013-03-01 18:00:00,
2013-03-01 13:14:00,33.7,27.6,30.01,NW,315,6.0,6.0,78,0.00,,---,0.01,VWS V14.01,2013-03-01 18:14:00,
2013-03-01 13:19:00,33.7,27.6,30.01,NNW,329,5.0,6.0,78,0.01,,---,0.01,VWS V14.01,2013-03-01 18:19:00,
2013-03-01 13:24:00,33.7,27.3,30.01,WNW,288,8.0,8.0,77,0.01,,---,0.01,VWS V14.01,2013-03-01 18:24:00,
2013-03-01 13:29:00,33.5,27.1,30.01,NW,324,5.0,8.0,77,0.01,,---,0.01,VWS V14.01,2013-03-01 18:29:00,
2013-03-01 13:30:00,33.5,27.1,30.01,NW,315,6.0,11.0,77,0.00,,---,0.02,VWS V14.01,2013-03-01 18:30:00,
2013-03-01 13:34:00,33.5,27.1,30.01,NW,311,4.0,8.0,77,0.01,,---,0.01,VWS V14.01,2013-03-01 18:34:00,
2013-03-01 13:39:00,33.5,27.4,30.01,NW,304,5.0,8.0,78,0.01,,---,0.01,VWS V14.01,2013-03-01 18:39:00,
2013-03-01 13:44:00,33.5,27.4,30.00,NW,315,5.0,8.0,78,0.01,,---,0.01,VWS V14.01,2013-03-01 18:44:00,
2013-03-01 13:49:00,33.5,27.4,30.00,NW,309,4.0,8.0,78,0.01,,---,0.01,VWS V14.01,2013-03-01 18:49:00,
2013-03-01 13:55:00,33.2,27.1,30.00,NW,309,5.0,8.0,78,0.01,,---,0.01,VWS V14.01,2013-03-01 18:55:00,
2013-03-01 14:00:00,33.2,27.4,30.00,NW,315,5.0,11.0,79,0.00,,---,0.02,VWS V14.01,2013-03-01 19:00:00,
2013-03-01 14:30:00,32.9,27.7,29.99,NW,315,6.0,11.0,81,0.01,,---,0.03,VWS V14.01,2013-03-01 19:30:00,
2013-03-01 15:00:00,33.2,28.0,29.99,NW,315,7.0,11.0,81,0.01,,---,0.03,VWS V14.01,2013-03-01 20:00:00,
2013-03-01 15:30:00,33.4,28.2,30.00,NW,315,6.0,11.0,81,0.01,,---,0.03,VWS V14.01,2013-03-01 20:30:00,
2013-03-01 16:21:00,33.4,28.2,30.00,NW,315,6.0,11.0,81,0.01,,---,0.03,VWS V14.01,2013-03-01 21:21:00,
2013-03-01 16:26:00,32.9,28.3,30.00,North,11,0.0,6.0,83,0.00,,---,0.02,VWS V14.01,2013-03-01 21:26:00,
2013-03-01 16:31:00,32.9,28.3,30.00,North,9,3.0,3.0,83,0.00,,---,0.02,VWS V14.01,2013-03-01 21:31:00,
2013-03-01 16:36:00,32.9,28.3,30.00,NNW,348,2.0,4.0,83,0.00,,---,0.02,VWS V14.01,2013-03-01 21:36:00,
2013-03-01 16:41:00,33.1,28.5,30.00,North,5,3.0,5.0,83,0.00,,---,0.02,VWS V14.01,2013-03-01 21:41:00,
2013-03-01 16:46:00,33.1,28.5,30.01,North,360,2.0,5.0,83,0.00,,---,0.02,VWS V14.01,2013-03-01 21:46:00,
2013-03-01 16:51:00,33.1,28.8,30.01,North,355,5.0,6.0,84,0.00,,---,0.02,VWS V14.01,2013-03-01 21:51:00,
2013-03-01 16:56:00,32.9,28.6,30.00,ENE,62,2.0,8.0,84,0.00,,---,0.02,VWS V14.01,2013-03-01 21:56:00,
2013-03-01 17:01:00,32.7,28.4,30.01,NE,39,5.0,5.0,84,0.00,,---,0.02,VWS V14.01,2013-03-01 22:01:00,
2013-03-01 17:06:00,32.5,28.2,30.01,NNE,17,1.0,7.0,84,0.00,,---,0.02,VWS V14.01,2013-03-01 22:06:00,
2013-03-01 17:11:00,32.4,28.1,30.01,NE,37,1.0,7.0,84,0.00,,---,0.02,VWS V14.01,2013-03-01 22:11:00,
2013-03-01 17:16:00,32.2,27.9,30.01,NNW,344,4.0,7.0,84,0.00,,---,0.02,VWS V14.01,2013-03-01 22:16:00,
2013-03-01 17:21:00,32.2,27.9,30.01,NNE,15,1.0,8.0,84,0.00,,---,0.02,VWS V14.01,2013-03-01 22:21:00,
2013-03-01 17:26:00,32.2,27.9,30.02,NNE,18,1.0,8.0,84,0.00,,---,0.02,VWS V14.01,2013-03-01 22:26:00,
2013-03-01 17:31:00,32.1,27.8,30.02,ENE,61,1.0,2.0,84,0.00,,---,0.02,VWS V14.01,2013-03-01 22:31:00,
2013-03-01 17:36:00,32.1,28.1,30.02,NE,42,1.0,6.0,85,0.01,,---,0.03,VWS V14.01,2013-03-01 22:36:00,
2013-03-01 17:41:00,32.1,28.1,30.02,NNE,30,2.0,7.0,85,0.01,,---,0.03,VWS V14.01,2013-03-01 22:41:00,
2013-03-01 17:46:00,32.1,28.1,30.02,NE,34,1.0,8.0,85,0.01,,---,0.03,VWS V14.01,2013-03-01 22:46:00,
2013-03-01 17:51:00,31.9,27.9,30.02,NNE,16,4.0,8.0,85,0.01,,---,0.03,VWS V14.01,2013-03-01 22:51:00,
2013-03-01 17:56:00,31.9,27.9,30.02,NE,48,0.0,8.0,85,0.01,,---,0.03,VWS V14.01,2013-03-01 22:56:00,
2013-03-01 18:01:00,31.9,27.9,30.02,NE,45,1.0,3.0,85,0.01,,---,0.03,VWS V14.01,2013-03-01 23:01:00,
2013-03-01 18:06:00,31.9,27.9,30.03,NE,42,2.0,5.0,85,0.01,,---,0.03,VWS V14.01,2013-03-01 23:06:00,
2013-03-01 18:11:00,31.9,27.9,30.03,NE,42,2.0,7.0,85,0.01,,---,0.03,VWS V14.01,2013-03-01 23:11:00,
2013-03-01 18:16:00,31.8,27.8,30.03,NE,49,0.0,7.0,85,0.01,,---,0.03,VWS V14.01,2013-03-01 23:16:00,
2013-03-01 18:21:00,31.8,27.8,30.03,NE,42,2.0,7.0,85,0.01,,---,0.03,VWS V14.01,2013-03-01 23:21:00,
2013-03-01 18:26:00,31.6,27.6,30.03,NNE,30,1.0,7.0,85,0.01,,---,0.03,VWS V14.01,2013-03-01 23:26:00,
2013-03-01 18:30:00,31.6,27.6,30.03,NNE,26,0.0,7.0,85,0.01,,---,0.03,VWS V14.01,2013-03-01 23:30:00,
2013-03-01 18:35:00,31.6,27.6,30.03,NE,42,0.0,4.0,85,0.01,,---,0.03,VWS V14.01,2013-03-01 23:35:00,
2013-03-01 18:40:00,31.6,27.6,30.03,North,5,4.0,5.0,85,0.01,,---,0.03,VWS V14.01,2013-03-01 23:40:00,
2013-03-01 18:45:00,31.5,27.5,30.03,NNW,347,2.0,9.0,85,0.01,,---,0.03,VWS V14.01,2013-03-01 23:45:00,
2013-03-01 18:50:00,31.3,27.0,30.03,NE,40,1.0,9.0,84,0.01,,---,0.03,VWS V14.01,2013-03-01 23:50:00,
2013-03-01 18:55:00,31.3,27.0,30.04,North,360,2.0,9.0,84,0.01,,---,0.03,VWS V14.01,2013-03-01 23:55:00,
2013-03-01 19:00:00,31.3,27.0,30.04,North,360,4.0,4.0,84,0.00,,---,0.03,VWS V14.01,2013-03-02 00:00:00,
2013-03-01 19:05:00,31.3,26.8,30.04,NNE,30,4.0,9.0,83,0.00,,---,0.03,VWS V14.01,2013-03-02 00:05:00,
2013-03-01 19:10:00,31.3,26.8,30.04,NE,42,1.0,9.0,83,0.00,,---,0.03,VWS V14.01,2013-03-02 00:10:00,
2013-03-01 19:16:00,31.3,26.5,30.04,NE,34,0.0,9.0,82,0.00,,---,0.03,VWS V14.01,2013-03-02 00:16:00,
2013-03-01 19:21:00,31.3,26.5,30.05,NE,49,4.0,9.0,82,0.00,,---,0.03,VWS V14.01,2013-03-02 00:21:00,
2013-03-01 19:26:00,31.3,26.2,30.05,NNE,28,1.0,9.0,81,0.00,,---,0.03,VWS V14.01,2013-03-02 00:26:00,
2013-03-01 19:31:00,31.3,26.2,30.05,NE,44,0.0,4.0,81,0.00,,---,0.03,VWS V14.01,2013-03-02 00:31:00,
2013-03-01 19:36:00,31.3,26.2,30.05,NE,56,2.0,9.0,81,0.00,,---,0.03,VWS V14.01,2013-03-02 00:36:00,
2013-03-01 19:41:00,31.3,25.9,30.05,NE,43,1.0,9.0,80,0.00,,---,0.03,VWS V14.01,2013-03-02 00:41:00,
2013-03-01 19:46:00,31.3,25.9,30.05,NNE,17,3.0,9.0,80,0.00,,---,0.03,VWS V14.01,2013-03-02 00:46:00,
2013-03-01 19:51:00,31.3,25.6,30.05,NNE,19,4.0,9.0,79,0.00,,---,0.03,VWS V14.01,2013-03-02 00:51:00,
2013-03-01 19:56:00,31.5,25.8,30.05,North,360,1.0,9.0,79,0.00,,---,0.03,VWS V14.01,2013-03-02 00:56:00,
2013-03-01 20:01:00,31.5,25.8,30.05,NE,50,0.0,0.0,79,0.00,,---,0.03,VWS V14.01,2013-03-02 01:01:00,
2013-03-01 20:06:00,31.3,25.2,30.05,NNE,22,0.0,5.0,78,0.00,,---,0.03,VWS V14.01,2013-03-02 01:06:00,
2013-03-01 20:11:00,31.3,25.2,30.05,North,5,0.0,6.0,78,0.00,,---,0.03,VWS V14.01,2013-03-02 01:11:00,
2013-03-01 20:16:00,31.3,25.2,30.05,North,10,2.0,6.0,78,0.00,,---,0.03,VWS V14.01,2013-03-02 01:16:00,
2013-03-01 20:21:00,31.3,25.2,30.05,NE,35,6.0,6.0,78,0.00,,---,0.03,VWS V14.01,2013-03-02 01:21:00,
2013-03-01 20:26:00,31.3,25.2,30.06,North,9,3.0,6.0,78,0.00,,---,0.03,VWS V14.01,2013-03-02 01:26:00,
2013-03-01 20:31:00,31.3,25.2,30.06,NE,55,1.0,1.0,78,0.00,,---,0.03,VWS V14.01,2013-03-02 01:31:00,
2013-03-01 20:36:00,31.3,24.9,30.06,NNE,17,0.0,8.0,77,0.00,,---,0.03,VWS V14.01,2013-03-02 01:36:00,
2013-03-01 20:41:00,31.3,24.9,30.06,NNE,15,1.0,8.0,77,0.00,,---,0.03,VWS V14.01,2013-03-02 01:41:00,
2013-03-01 20:46:00,31.3,24.6,30.06,NNE,27,4.0,8.0,76,0.00,,---,0.03,VWS V14.01,2013-03-02 01:46:00,
2013-03-01 20:51:00,31.3,24.3,30.06,NE,46,5.0,11.0,75,0.00,,---,0.03,VWS V14.01,2013-03-02 01:51:00,
2013-03-01 20:56:00,31.3,24.3,30.06,North,5,4.0,11.0,75,0.00,,---,0.03,VWS V14.01,2013-03-02 01:56:00,
2013-03-01 21:01:00,31.3,24.3,30.06,NNE,33,0.0,1.0,75,0.00,,---,0.03,VWS V14.01,2013-03-02 02:01:00,
2013-03-01 21:06:00,31.3,24.3,30.06,North,355,3.0,6.0,75,0.00,,---,0.03,VWS V14.01,2013-03-02 02:06:00,
2013-03-01 21:11:00,31.3,24.3,30.06,North,11,1.0,6.0,75,0.00,,---,0.03,VWS V14.01,2013-03-02 02:11:00,
2013-03-01 21:16:00,31.3,24.3,30.06,North,360,4.0,6.0,75,0.00,,---,0.03,VWS V14.01,2013-03-02 02:16:00,
2013-03-01 21:21:00,31.3,24.0,30.06,North,5,5.0,6.0,74,0.00,,---,0.03,VWS V14.01,2013-03-02 02:21:00,
2013-03-01 21:26:00,31.3,24.0,30.06,NNE,19,1.0,6.0,74,0.00,,---,0.03,VWS V14.01,2013-03-02 02:26:00,
2013-03-01 21:31:00,31.3,24.0,30.06,NE,55,0.0,1.0,74,0.00,,---,0.03,VWS V14.01,2013-03-02 02:31:00,
2013-03-01 21:36:00,31.2,23.9,30.06,NE,36,1.0,5.0,74,0.00,,---,0.03,VWS V14.01,2013-03-02 02:36:00,
2013-03-01 21:41:00,31.2,23.9,30.06,NE,35,2.0,5.0,74,0.00,,---,0.03,VWS V14.01,2013-03-02 02:41:00,
2013-03-01 21:46:00,31.2,23.9,30.06,NE,47,2.0,6.0,74,0.00,,---,0.03,VWS V14.01,2013-03-02 02:46:00,
2013-03-01 21:51:00,31.2,23.9,30.06,North,5,2.0,7.0,74,0.00,,---,0.03,VWS V14.01,2013-03-02 02:51:00,
2013-03-01 21:56:00,31.2,23.6,30.06,NNE,18,0.0,7.0,73,0.00,,---,0.03,VWS V14.01,2013-03-02 02:56:00,
2013-03-01 22:01:00,31.2,23.6,30.06,North,5,3.0,3.0,73,0.00,,---,0.03,VWS V14.01,2013-03-02 03:01:00,
2013-03-01 22:06:00,31.2,23.6,30.06,NNE,32,1.0,7.0,73,0.00,,---,0.03,VWS V14.01,2013-03-02 03:06:00,
2013-03-01 22:11:00,31.2,23.6,30.06,NNE,23,3.0,8.0,73,0.00,,---,0.03,VWS V14.01,2013-03-02 03:11:00,
2013-03-01 22:16:00,31.0,23.4,30.07,North,5,3.0,8.0,73,0.00,,---,0.03,VWS V14.01,2013-03-02 03:16:00,
2013-03-01 22:21:00,30.9,23.0,30.07,NE,48,2.0,9.0,72,0.00,,---,0.03,VWS V14.01,2013-03-02 03:21:00,
2013-03-01 22:26:00,30.9,22.6,30.07,NE,51,2.0,9.0,71,0.00,,---,0.03,VWS V14.01,2013-03-02 03:26:00,
2013-03-01 22:31:00,30.9,22.6,30.07,NNE,15,3.0,3.0,71,0.00,,---,0.03,VWS V14.01,2013-03-02 03:31:00,
2013-03-01 22:36:00,30.9,22.6,30.07,NNE,12,4.0,6.0,71,0.00,,---,0.03,VWS V14.01,2013-03-02 03:36:00,
2013-03-01 22:41:00,30.9,22.6,30.07,NE,51,0.0,6.0,71,0.00,,---,0.03,VWS V14.01,2013-03-02 03:41:00,
2013-03-01 22:46:00,30.9,22.6,30.07,NNE,30,5.0,8.0,71,0.00,,---,0.03,VWS V14.01,2013-03-02 03:46:00,
2013-03-01 22:51:00,30.7,22.1,30.07,North,5,4.0,9.0,70,0.00,,---,0.03,VWS V14.01,2013-03-02 03:51:00,
2013-03-01 22:56:00,30.7,22.1,30.07,NE,34,1.0,9.0,70,0.00,,---,0.03,VWS V14.01,2013-03-02 03:56:00,
2013-03-01 23:01:00,30.7,22.1,30.07,North,11,4.0,4.0,70,0.00,,---,0.03,VWS V14.01,2013-03-02 04:01:00,
2013-03-01 23:06:00,30.7,22.1,30.07,NE,40,1.0,7.0,70,0.00,,---,0.03,VWS V14.01,2013-03-02 04:06:00,
2013-03-01 23:11:00,30.7,22.1,30.07,ENE,65,5.0,9.0,70,0.00,,---,0.03,VWS V14.01,2013-03-02 04:11:00,
2013-03-01 23:16:00,30.6,21.6,30.07,ENE,74,10.0,10.0,69,0.00,,---,0.03,VWS V14.01,2013-03-02 04:16:00,
2013-03-01 23:21:00,30.6,21.6,30.07,North,350,3.0,10.0,69,0.00,,---,0.03,VWS V14.01,2013-03-02 04:21:00,
2013-03-01 23:26:00,30.4,21.5,30.07,NNE,24,1.0,10.0,69,0.00,,---,0.03,VWS V14.01,2013-03-02 04:26:00,
2013-03-01 23:31:00,30.3,21.4,30.07,ENE,65,3.0,5.0,69,0.00,,---,0.03,VWS V14.01,2013-03-02 04:31:00,
2013-03-01 23:36:00,30.1,21.2,30.07,NNE,24,2.0,11.0,69,0.00,,---,0.03,VWS V14.01,2013-03-02 04:36:00,
2013-03-01 23:41:00,30.0,20.7,30.07,NE,54,0.0,11.0,68,0.00,,---,0.03,VWS V14.01,2013-03-02 04:41:00,
2013-03-01 23:46:00,29.8,20.5,30.07,ENE,65,1.0,11.0,68,0.00,,---,0.03,VWS V14.01,2013-03-02 04:46:00,
2013-03-01 23:51:00,29.8,20.5,30.07,NNE,17,2.0,11.0,68,0.00,,---,0.03,VWS V14.01,2013-03-02 04:51:00,
2013-03-01 23:56:00,29.7,20.5,30.07,NNE,19,1.0,11.0,68,0.00,,---,0.03,VWS V14.01,2013-03-02 04:56:00,